�N����,����,�~����,�C��,���x,�C��,����,���ϕ���,�ő�u�ԕ���,�ő厞����,���˗�,�I�_���x,�n�����x,�ő啗���N��,DTYPE
"23/09/28","00:10",0.0,24.5,86.1,1005.5,301.5,0.2,0.6,318.0,0.00,22.1,25.0,"00:09:28",1
"23/09/28","00:20",0.0,24.6,86.7,1005.0,307.9,0.8,1.3,323.6,0.00,22.3,24.7,"00:19:44",1
"23/09/28","00:30",0.0,24.6,87.0,1005.2,325.3,1.1,2.0,322.2,0.00,22.3,24.7,"00:27:20",1
"23/09/28","00:40",0.0,24.7,87.2,1005.2,291.1,0.6,1.1,322.5,0.00,22.5,24.9,"00:30:16",1
"23/09/28","00:50",0.0,24.6,87.4,1005.2,292.1,0.5,0.6,295.1,0.00,22.4,24.7,"00:40:08",1
"23/09/28","01:00",0.0,24.4,87.6,1005.2,292.9,0.3,1.2,311.9,0.00,22.2,24.6,"00:50:02",1
"23/09/28","01:10",0.0,24.4,87.8,1005.0,296.9,0.5,1.3,323.8,0.00,22.3,24.4,"01:02:00",1
"23/09/28","01:20",0.0,24.4,88.0,1004.8,312.2,0.7,1.0,313.7,0.00,22.3,24.6,"01:12:16",1
"23/09/28","01:30",0.0,24.2,88.2,1005.0,321.6,0.6,1.1,347.7,0.00,22.2,24.7,"01:25:52",1
"23/09/28","01:40",0.0,24.1,88.5,1004.5,30.1,0.5,1.3,334.6,0.00,22.1,24.6,"01:39:20",1
"23/09/28","01:50",0.0,23.9,88.9,1005.0,315.2,0.5,1.0,305.2,0.00,22.0,24.7,"01:40:24",1
"23/09/28","02:00",0.0,23.9,89.2,1005.2,275.8,0.7,1.0,265.7,0.00,22.1,24.8,"01:50:32",1
"23/09/28","02:10",0.0,24.0,89.4,1004.8,317.8,0.7,1.3,343.3,0.00,22.2,24.5,"02:07:28",1
"23/09/28","02:20",0.0,23.9,89.6,1004.8,355.8,0.7,1.2,335.9,0.00,22.1,24.6,"02:15:12",1
"23/09/28","02:30",0.0,23.7,89.9,1005.0,332.4,0.8,1.2,342.9,0.00,22.0,24.6,"02:22:32",1
"23/09/28","02:40",0.0,23.5,90.0,1004.8,298.2,0.5,1.0,326.1,0.00,21.8,24.5,"02:33:20",1
"23/09/28","02:50",0.0,23.3,90.3,1004.8,306.8,0.5,1.1,337.1,0.00,21.7,24.4,"02:47:44",1
"23/09/28","03:00",0.0,23.2,90.5,1005.0,317.7,0.8,1.3,332.4,0.00,21.6,24.5,"02:58:00",1
"23/09/28","03:10",0.0,23.3,90.7,1005.0,309.0,0.7,1.2,348.7,0.00,21.7,24.3,"03:01:04",1
"23/09/28","03:20",0.0,23.3,91.0,1005.0,324.7,0.7,1.4,335.4,0.00,21.8,24.4,"03:17:52",1
"23/09/28","03:30",0.0,23.2,91.1,1004.8,318.1,0.6,1.1,324.0,0.00,21.7,24.7,"03:28:56",1
"23/09/28","03:40",0.0,23.1,91.3,1005.0,305.6,0.6,1.4,309.1,0.00,21.6,24.4,"03:30:02",1
"23/09/28","03:50",0.0,23.2,91.6,1004.8,325.7,1.0,1.7,329.0,0.00,21.8,24.5,"03:40:24",1
"23/09/28","04:00",0.0,23.2,91.8,1004.8,326.3,0.8,1.2,329.2,0.00,21.8,24.3,"03:52:00",1
"23/09/28","04:10",0.0,23.2,91.9,1005.0,328.3,0.8,1.3,342.6,0.00,21.8,24.4,"04:03:20",1
"23/09/28","04:20",0.0,23.4,92.2,1005.0,329.3,1.1,1.7,342.7,0.00,22.1,24.4,"04:16:00",1
"23/09/28","04:30",0.0,23.3,92.2,1004.8,172.1,0.1,0.9,274.0,0.00,22.0,24.2,"04:20:56",1
"23/09/28","04:40",0.0,23.3,92.4,1005.0,290.9,0.6,1.0,270.8,0.00,22.0,24.2,"04:33:52",1
"23/09/28","04:50",0.0,23.3,92.5,1005.0,312.6,0.8,1.3,333.4,0.00,22.1,24.2,"04:40:40",1
"23/09/28","05:00",0.0,23.2,92.6,1005.0,292.3,0.6,1.0,305.1,0.00,22.0,24.2,"04:50:08",1
"23/09/28","05:10",0.0,23.1,92.7,1005.2,299.8,0.7,1.1,314.0,0.00,21.9,24.2,"05:08:32",1
"23/09/28","05:20",0.0,23.1,92.8,1005.2,309.9,0.7,1.0,322.0,0.00,21.9,24.2,"05:10:24",1
"23/09/28","05:30",0.0,23.3,93.0,1005.0,320.9,1.1,1.9,332.0,0.00,22.1,24.2,"05:28:16",1
"23/09/28","05:40",0.0,23.3,93.0,1005.5,319.7,0.7,1.2,333.6,0.00,22.1,24.2,"05:30:24",1
"23/09/28","05:50",0.0,23.2,93.1,1005.5,298.1,0.6,0.9,271.2,0.00,22.1,24.3,"05:41:04",1
"23/09/28","06:00",0.0,23.2,93.2,1005.5,310.9,0.8,1.1,321.4,0.00,22.1,24.2,"05:55:36",1
"23/09/28","06:10",0.0,23.3,93.3,1005.5,308.3,0.7,1.3,310.2,0.00,22.2,24.1,"06:04:00",1
"23/09/28","06:20",0.0,23.4,93.3,1006.0,287.8,0.6,1.1,314.0,0.00,22.3,24.2,"06:15:04",1
"23/09/28","06:30",0.0,23.6,93.4,1005.2,313.0,0.6,1.3,330.3,0.00,22.5,24.2,"06:21:04",1
"23/09/28","06:40",0.0,23.7,93.4,1005.5,319.1,1.0,1.3,318.4,0.00,22.6,24.2,"06:37:28",1
"23/09/28","06:50",0.0,23.9,93.4,1005.7,290.2,0.2,0.6,315.0,0.00,22.8,24.2,"06:40:08",1
"23/09/28","07:00",0.0,24.1,93.4,1005.7,310.4,0.5,1.1,307.1,0.00,23.0,24.1,"06:57:36",1
"23/09/28","07:10",0.0,24.3,93.4,1006.0,324.6,0.6,1.2,326.7,0.00,23.2,24.2,"07:05:12",1
"23/09/28","07:20",0.0,24.5,93.4,1005.5,309.6,0.6,1.2,332.2,0.01,23.4,24.0,"07:11:52",1
"23/09/28","07:30",0.0,24.7,93.4,1006.0,296.6,0.5,1.1,320.6,0.02,23.6,24.2,"07:28:16",1
"23/09/28","07:40",0.0,24.9,93.4,1005.7,312.5,0.6,1.2,336.2,0.03,23.8,24.3,"07:39:44",1
"23/09/28","07:50",0.0,25.4,93.2,1005.7,298.0,0.6,1.6,321.7,0.06,24.3,24.2,"07:41:44",1
"23/09/28","08:00",0.0,25.7,92.9,1006.0,230.0,0.3,0.9,113.1,0.05,24.5,24.2,"07:50:56",1
"23/09/28","08:10",0.0,25.6,92.2,1006.0,234.1,0.6,1.7,215.0,0.06,24.3,24.2,"08:01:44",1
"23/09/28","08:20",0.0,26.0,91.5,1006.0,205.1,0.3,0.8,336.7,0.07,24.5,24.2,"08:15:12",1
"23/09/28","08:30",0.0,26.0,90.9,1006.0,16.7,0.5,1.4,358.4,0.07,24.4,24.2,"08:24:24",1
"23/09/28","08:40",0.0,26.3,90.2,1005.5,177.7,0.3,1.0,230.1,0.07,24.6,24.2,"08:35:36",1
"23/09/28","08:50",0.0,26.8,88.4,1005.2,121.0,0.7,1.9,136.8,0.19,24.8,24.4,"08:49:12",1
"23/09/28","09:00",0.0,27.5,84.8,1004.8,156.3,0.8,2.5,188.8,0.19,24.8,24.2,"08:57:52",1
"23/09/28","09:10",0.0,28.4,80.4,1005.0,126.7,1.1,2.1,121.6,0.21,24.7,24.4,"09:05:04",1
"23/09/28","09:20",0.0,29.0,75.4,1005.5,215.8,1.2,2.8,209.6,0.24,24.2,24.2,"09:16:00",1
"23/09/28","09:30",0.0,29.0,72.9,1005.5,254.3,0.8,2.5,191.0,0.16,23.7,24.2,"09:29:52",1
"23/09/28","09:40",0.0,29.5,71.4,1005.5,228.3,1.6,4.5,234.8,0.26,23.8,24.3,"09:37:04",1
"23/09/28","09:50",0.0,30.1,67.8,1005.7,235.5,1.5,3.2,222.8,0.35,23.5,24.4,"09:46:56",1
"23/09/28","10:00",0.0,30.1,66.0,1005.7,230.3,3.0,6.8,186.0,0.37,23.1,24.6,"09:59:28",1
"23/09/28","10:10",0.0,30.7,65.6,1006.0,226.8,1.8,4.3,231.5,0.40,23.6,24.5,"10:00:08",1
"23/09/28","10:20",0.0,31.0,62.8,1006.0,224.0,2.1,4.7,224.6,0.39,23.1,24.7,"10:10:56",1
"23/09/28","10:30",0.0,31.2,62.4,1006.2,316.5,1.5,3.2,227.6,0.38,23.2,24.7,"10:20:16",1
"23/09/28","10:40",0.0,31.7,61.8,1006.0,278.5,1.6,4.7,235.7,0.48,23.5,24.9,"10:36:40",1
"23/09/28","10:50",0.0,31.2,59.4,1006.0,216.7,3.2,7.1,223.5,0.47,22.4,25.0,"10:45:52",1
"23/09/28","11:00",0.0,31.1,60.0,1006.0,305.9,1.5,3.9,338.1,0.26,22.5,25.1,"10:59:52",1
"23/09/28","11:10",0.0,31.1,59.7,1005.2,314.9,1.8,4.9,357.0,0.36,22.4,25.1,"11:07:36",1
"23/09/28","11:20",0.0,31.3,58.1,1005.5,264.6,1.5,4.3,224.5,0.31,22.1,25.0,"11:19:44",1
"23/09/28","11:30",0.0,31.3,57.5,1005.2,320.5,1.6,4.3,315.0,0.30,21.9,25.2,"11:27:44",1
"23/09/28","11:40",0.0,31.1,58.6,1004.8,287.1,1.6,3.9,351.4,0.18,22.1,25.2,"11:30:56",1
"23/09/28","11:50",0.0,31.2,58.1,1004.5,293.3,1.6,3.4,321.5,0.26,22.0,25.3,"11:43:44",1
"23/09/28","12:00",0.0,31.9,56.9,1004.5,328.8,1.8,4.3,331.5,0.42,22.3,25.2,"11:58:32",1
"23/09/28","12:10",0.0,32.4,55.2,1004.8,241.0,2.1,5.1,234.6,0.48,22.3,25.5,"12:05:36",1
"23/09/28","12:20",0.0,32.4,55.4,1005.0,229.8,2.7,6.0,231.6,0.47,22.4,25.4,"12:18:32",1
"23/09/28","12:30",0.0,32.8,53.2,1005.0,292.1,1.6,4.2,355.1,0.44,22.1,25.5,"12:24:24",1
"23/09/28","12:40",0.0,31.6,55.6,1004.5,331.1,2.2,4.9,334.2,0.16,21.7,25.6,"12:31:36",1
"23/09/28","12:50",0.0,32.2,54.0,1004.5,274.9,1.6,3.6,343.1,0.32,21.8,25.5,"12:47:52",1
"23/09/28","13:00",0.0,32.7,53.8,1004.5,325.9,2.0,5.2,348.1,0.47,22.2,25.8,"12:53:52",1
"23/09/28","13:10",0.0,33.1,55.1,1004.5,246.2,1.6,4.0,14.0,0.39,22.9,25.8,"13:01:04",1
"23/09/28","13:20",0.0,32.7,54.6,1004.3,231.9,2.5,5.1,226.6,0.45,22.4,25.7,"13:16:24",1
"23/09/28","13:30",0.0,32.4,56.1,1004.3,210.3,3.4,5.5,222.4,0.48,22.6,25.7,"13:25:36",1
"23/09/28","13:40",0.0,31.7,56.6,1004.1,211.1,4.2,7.3,217.0,0.33,22.1,25.9,"13:32:48",1
"23/09/28","13:50",0.0,31.6,58.1,1003.8,238.6,2.1,5.8,236.4,0.18,22.4,26.0,"13:40:24",1
"23/09/28","14:00",0.0,31.5,57.9,1003.4,240.4,2.0,7.8,216.6,0.23,22.2,26.1,"13:59:36",1
"23/09/28","14:10",0.0,30.8,59.6,1003.1,212.9,2.7,4.8,221.0,0.10,22.1,25.9,"14:05:52",1
"23/09/28","14:20",0.0,31.2,59.5,1002.9,226.2,2.1,4.7,220.2,0.17,22.4,25.8,"14:15:36",1
"23/09/28","14:30",0.0,30.9,60.0,1002.9,221.5,3.6,6.3,197.7,0.14,22.3,26.1,"14:26:40",1
"23/09/28","14:40",0.0,30.9,59.9,1002.4,255.6,1.8,6.0,235.2,0.14,22.2,26.2,"14:31:44",1
"23/09/28","14:50",0.0,30.8,60.4,1002.6,246.1,1.6,3.6,244.3,0.09,22.3,26.2,"14:45:04",1
"23/09/28","15:00",0.0,30.8,60.2,1002.4,262.3,1.3,5.5,231.5,0.11,22.2,26.1,"14:57:20",1
"23/09/28","15:10",0.0,30.7,60.5,1002.6,251.4,2.2,5.5,214.2,0.14,22.2,26.2,"15:09:28",1
"23/09/28","15:20",0.0,30.6,60.6,1002.6,242.7,2.2,4.5,238.1,0.11,22.2,26.1,"15:10:08",1
"23/09/28","15:30",0.0,30.4,61.7,1002.4,276.8,1.3,4.3,268.4,0.10,22.3,26.0,"15:20:32",1
"23/09/28","15:40",0.0,29.9,62.5,1002.4,315.1,1.6,4.8,330.9,0.05,22.0,26.2,"15:33:52",1
"23/09/28","15:50",0.0,29.5,64.4,1002.2,303.8,1.3,2.9,239.0,0.00,22.1,26.2,"15:46:08",1
"23/09/28","16:00",0.0,28.9,66.9,1001.7,330.5,1.5,2.6,327.0,0.00,22.2,26.2,"15:52:00",1
"23/09/28","16:10",0.0,28.4,70.1,1001.5,343.1,1.3,2.2,353.7,0.00,22.5,25.8,"16:04:24",1
"23/09/28","16:20",0.0,27.4,75.7,1002.2,314.5,1.2,2.5,333.2,0.00,22.8,26.0,"16:15:20",1
"23/09/28","16:30",0.0,26.9,78.9,1002.6,329.2,1.8,4.0,331.2,0.00,23.0,26.0,"16:21:04",1
"23/09/28","16:40",0.0,26.6,80.9,1002.4,325.9,2.1,3.9,306.4,0.00,23.1,25.8,"16:35:36",1
"23/09/28","16:50",0.0,26.4,81.7,1002.6,322.3,1.6,3.1,339.7,0.00,23.1,25.9,"16:42:08",1
"23/09/28","17:00",0.0,26.4,81.5,1002.9,334.7,2.0,4.0,333.1,0.00,23.0,25.8,"16:50:02",1
"23/09/28","17:10",0.0,26.2,80.9,1003.4,336.9,2.2,4.2,341.4,0.00,22.7,25.9,"17:03:04",1
"23/09/28","17:20",0.0,26.0,79.9,1003.1,326.6,1.8,4.5,306.1,0.00,22.3,25.7,"17:18:48",1
"23/09/28","17:30",0.0,26.1,78.6,1003.4,336.7,2.2,4.2,317.1,0.00,22.1,25.9,"17:23:36",1
"23/09/28","17:40",0.0,26.0,78.4,1003.6,337.9,1.7,3.4,329.8,0.00,22.0,25.6,"17:36:32",1
"23/09/28","17:50",0.0,25.9,78.7,1003.6,331.6,1.2,2.0,334.5,0.00,22.0,25.6,"17:41:52",1
"23/09/28","18:00",0.0,25.7,77.5,1003.8,335.4,1.7,4.0,340.2,0.00,21.5,25.7,"17:59:44",1
"23/09/28","18:10",0.0,26.1,76.1,1004.1,328.7,1.7,3.1,352.1,0.00,21.6,25.7,"18:02:32",1
"23/09/28","18:20",0.0,25.8,76.9,1003.8,346.9,1.2,2.7,349.4,0.00,21.5,25.6,"18:14:56",1
"23/09/28","18:30",0.0,25.5,77.8,1004.1,345.4,1.5,2.5,351.4,0.00,21.4,25.6,"18:25:04",1
"23/09/28","18:40",0.0,25.3,78.3,1003.8,339.5,1.3,2.9,353.2,0.00,21.3,25.7,"18:35:20",1
"23/09/28","18:50",0.0,25.4,78.0,1004.1,322.5,1.7,3.2,348.6,0.00,21.3,25.5,"18:43:52",1
"23/09/28","19:00",0.0,25.4,77.3,1003.8,342.0,2.0,4.1,344.6,0.00,21.2,25.6,"18:53:44",1
"23/09/28","19:10",0.0,25.4,76.6,1004.5,340.3,1.6,2.9,351.3,0.00,21.0,25.3,"19:00:24",1
"23/09/28","19:20",0.0,25.3,76.6,1004.1,336.1,1.3,2.8,355.8,0.00,20.9,25.3,"19:12:08",1
"23/09/28","19:30",0.0,25.1,77.0,1004.8,341.9,1.7,3.1,338.5,0.00,20.8,25.2,"19:21:36",1
"23/09/28","19:40",0.0,24.8,77.5,1004.8,328.7,1.1,2.7,341.1,0.00,20.6,25.4,"19:31:12",1
"23/09/28","19:50",0.0,24.8,78.0,1005.0,342.0,1.3,2.6,329.6,0.00,20.7,25.4,"19:44:48",1
"23/09/28","20:00",0.0,24.6,78.5,1005.0,354.8,1.0,1.8,12.5,0.00,20.7,25.2,"19:54:08",1
"23/09/28","20:10",0.0,24.6,78.8,1005.2,340.7,1.0,1.9,350.4,0.00,20.7,25.1,"20:09:04",1
"23/09/28","20:20",0.0,24.4,79.2,1005.2,344.4,1.0,2.8,339.0,0.00,20.6,25.1,"20:18:40",1
"23/09/28","20:30",0.0,24.4,79.1,1005.0,346.3,1.1,2.6,340.9,0.00,20.6,25.3,"20:28:00",1
"23/09/28","20:40",0.0,24.4,79.1,1005.2,343.3,0.6,1.4,344.7,0.00,20.6,25.3,"20:32:40",1
"23/09/28","20:50",0.0,24.2,80.1,1005.2,351.7,0.7,1.4,352.9,0.00,20.6,25.2,"20:47:20",1
"23/09/28","21:00",0.0,23.9,80.9,1005.5,302.4,0.3,1.0,346.0,0.00,20.5,25.1,"20:57:20",1
"23/09/28","21:10",0.0,23.7,81.7,1005.2,312.0,0.7,1.4,349.7,0.00,20.4,25.3,"21:06:56",1
"23/09/28","21:20",0.0,23.7,81.9,1005.2,345.3,1.0,2.0,14.6,0.00,20.5,25.0,"21:19:36",1
"23/09/28","21:30",0.0,23.9,81.2,1005.2,343.4,0.7,1.6,18.2,0.00,20.5,24.8,"21:21:04",1
"23/09/28","21:40",0.0,23.7,81.2,1005.2,322.1,0.6,1.1,313.2,0.00,20.3,24.9,"21:31:36",1
"23/09/28","21:50",0.0,23.4,82.1,1005.5,301.4,0.6,1.8,342.5,0.00,20.2,24.8,"21:44:32",1
"23/09/28","22:00",0.0,23.1,83.3,1006.0,336.8,1.2,2.0,329.5,0.00,20.2,24.9,"21:50:24",1
"23/09/28","22:10",0.0,23.0,84.0,1005.7,332.4,1.1,1.7,332.9,0.00,20.2,24.8,"22:02:32",1
"23/09/28","22:20",0.0,22.8,84.8,1005.7,311.1,0.7,1.3,316.1,0.00,20.1,24.8,"22:13:12",1
"23/09/28","22:30",0.0,22.5,85.1,1005.7,334.1,0.6,1.2,327.3,0.00,19.9,24.6,"22:29:36",1
"23/09/28","22:40",0.0,22.4,85.5,1005.7,317.8,0.7,1.9,349.3,0.00,19.9,24.9,"22:32:56",1
"23/09/28","22:50",0.0,22.1,86.0,1006.0,314.0,0.8,1.7,351.9,0.00,19.7,24.7,"22:41:44",1
"23/09/28","23:00",0.0,22.0,86.6,1006.0,329.5,1.1,1.8,342.3,0.00,19.7,24.8,"22:55:52",1
"23/09/28","23:10",0.0,22.1,87.1,1006.4,337.4,1.0,1.8,340.7,0.00,19.9,24.6,"23:08:08",1
"23/09/28","23:20",0.0,21.9,87.5,1006.4,327.4,1.1,1.6,327.5,0.00,19.8,24.6,"23:14:24",1
"23/09/28","23:30",0.0,21.7,87.9,1006.2,327.3,1.0,1.8,332.2,0.00,19.6,24.5,"23:26:00",1
"23/09/28","23:40",0.0,21.8,88.5,1006.0,320.7,1.1,1.7,337.5,0.00,19.9,24.4,"23:32:48",1
"23/09/28","23:50",0.0,21.8,88.8,1006.4,326.3,1.1,1.7,336.2,0.00,19.9,24.5,"23:40:48",1
"23/09/28","24:00",0.0,21.7,89.1,1006.0,326.9,1.2,2.4,345.1,0.00,19.9,24.4,"23:54:16",1
